Regional Weather Roundup
Issued by NWS Grand Forks, ND

Home | Current Version | Previous Version | Graphics & Text | Print | Product List | Glossary On
Versions: 1 2 3 4 5 6 7 8 9 10 11 12 13 14 15 16 17 18 19 20 21 22 23 24 25 26 27 28 29 30 31 32 33 34 35 36 37 38 39 40 41 42 43 44 45 46 47 48 49 50
000
ASUS43 KFGF 220510
RWRFGF
PRAIRIE TO PINES  WEATHER ROUNDUP
NATIONAL WEATHER SERVICE EASTERN NORTH DAKOTA/GRAND FORKS ND
1200 AM CDT WED OCT 22 2014

 **SATELLITE DATA USED TO AUGMENT SKY COVER AT AUTOMATED STATIONS**
 *****  WEATHER ACROSS EASTERN NORTH DAKOTA  *****

CITY           SKY/WX    TMP DP  RH WIND       PRES   REMARKS
GRAND FORKS    CLEAR     55  41  59 S22G29    29.85F
GRAND FRKS AFB CLEAR     55  42  61 S23       29.84F
GRAND FRKS NWS   N/A     52 N/A N/A SE26        N/A
DEVILS LAKE    PTCLDY    59  43  55 S23G30    29.72F
FARGO          FAIR      56  41  57 SE22G37   29.91S
WAHPETON ARPT  CLEAR     54  37  54 SE20G25   29.95S
$$

 ***** WEATHER ACROSS CENTRAL AND WESTERN NORTH DAKOTA  *****

CITY           SKY/WX    TMP DP  RH WIND       PRES   REMARKS
BISMARCK       CLEAR     66  39  37 S22       29.66F
MINOT          CLEAR     65  41  41 S21G30    29.57F
JAMESTOWN      PTCLDY    58  44  60 SE13      29.79S
MINOT AFB      CLEAR     60  47  61 S13       29.57F
GARRISON         N/A     64  47  53 S9        29.61S
WILLISTON      PTCLDY    48  41  76 CALM      29.60S
DICKINSON      PTCLDY    53  42  66 S7        29.63S
HETTINGER      PTCLDY    60  44  55 SW7       29.67S
$$

 *****  OTHER AIRPORT OBSERVATIONS IN OUR AREA  *****

CITY           SKY/WX    TMP DP  RH WIND       PRES   REMARKS
WALHALLA       FAIR      55  41  58 S16G28    29.77F
GRAFTON AIRPOR FAIR      54  41  62 S20       29.83F
VALLEY CITY AR FAIR      55  41  58 S16G23    29.83F
CANDO          FAIR      57  45  62 S21G26    29.71F
CAVALIER APRT  FAIR      54  41  62 S16G24    29.80F
GWINNER        CLEAR     57  43  58 SE15      29.88F
ROLLA          FAIR      57  43  58 S18G25    29.69F
 ***** THE ABOVE OBSERVATIONS ARE NON NWS ARE NOT QUALITY
       CONTROLLED AND MAY MIS-REPORT RAIN FOR SNOW...
$$

  *****  WEATHER ACROSS NORTHERN MINNESOTA  *****

CITY           SKY/WX    TMP DP  RH WIND       PRES   REMARKS
FLAG ISLAND    CLEAR     46  39  76 S26       29.95S
WARROAD        CLEAR     50  41  71 S15G21    29.94F
ROSEAU         CLEAR     52  41  66 S18G25    29.91F
HALLOCK        PTCLDY    54  41  62 S20G25    29.85S
THF RVR FALLS  CLEAR     52  39  62 SE14G24   29.92F
BAUDETTE       CLEAR     44  36  73 SE10      30.00S
WASKISH        CLEAR     46  37  71 SE17G24   30.01F
CROOKSTON      CLEAR     54  41  62 S24G30    29.90F
STEPHEN NDAWN    N/A     54  43  66 S20         N/A
GREENBUSH NDAW   N/A     52  39  62 S20         N/A
$$
  *****  WEATHER ACROSS CENTRAL AND WEST MINNESOTA  *****

CITY           SKY/WX    TMP DP  RH WIND       PRES   REMARKS
FOSSTON        CLEAR     50  37  62 SE16G24   29.96F
BEMIDJI        FAIR      47  38  73 SE14      30.04S
PARK RAPIDS    CLEAR     46  38  73 SE13      30.05S
ELBOW LAKE     FAIR      52  40  64 SE18      30.00S
WADENA         CLEAR     46  37  71 SE10      30.04F
DETROIT LAKES  CLEAR     48  41  76 SE15G22   30.00F
MOORHEAD       FAIR      57  43  58 SE28G35   29.93S
FERGUS FALLS   CLEAR     54  37  54 SE21G28   29.98F
MORRIS MN      CLEAR     52  41  66 SE18      30.00F
STAPLES        CLEAR     46  37  71 SE13G21   30.07S
$$
  *****  WEATHER ELSEWHERE ACROSS MINNESOTA  *****

CITY           SKY/WX    TMP DP  RH WIND       PRES   REMARKS
DULUTH         CLEAR     37  35  92 SE7       30.19F
INTRNTL FALLS  CLEAR     39  34  82 SE10      30.08F
ELY            CLEAR     37  36  93 SE8       30.18F
CLOQUET        CLEAR     37  36  93 E5        30.18F
WHEATON        CLEAR     52  39  62 SE18      29.97F
BRAINERD       CLEAR     46  38  73 SE10      30.11F
HIBBING        CLEAR     35  33  92 SE8       30.16F
ALEXANDRIA     CLEAR     48  40  73 SE14      30.06S
SAINT CLOUD    CLEAR     49  38  65 SE12      30.13S
MINNEAPOLIS    CLEAR     46  37  71 SE10      30.18S
$$

  *****  WEATHER ACROSS SOUTH DAKOTA  *****

CITY           SKY/WX    TMP DP  RH WIND       PRES   REMARKS
SIOUX FALLS    CLEAR     56  43  61 SE15      30.02S
BROOKINGS      NOT AVBL
WATERTOWN      PTCLDY    56  41  57 S16       29.95F
HURON          CLEAR     62  41  46 S17G33    29.89S
SISSETON         N/A     53  42  66 S16       29.93F
ABERDEEN       CLEAR     64  43  46 S22G36    29.85S
MITCHELL       CLEAR     62  42  47 SE22G30   29.92F
PIERRE         PTCLDY    64  47  53 SE15      29.77S
MOBRIDGE       CLEAR     64  47  53 SE12      29.71F
RAPID CITY     PTCLDY    58  43  57 S5        29.77S
$$

  *****  SOME WEATHER IN NEARBY STATES *****

CITY           SKY/WX    TMP DP  RH WIND       PRES   REMARKS
GLASGOW MT     MOCLDY    53  45  74 W15       29.71R
GREAT FALLS MT CLOUDY    44  37  76 SW12      29.88R
CHEYENNE WY    CLOUDY    53  42  66 S5        30.01R
SCOTTSBLUFF NE LGT RAIN  60  48  64 W9        29.89R
OMAHA NE       PTCLDY    58  44  60 SE16      30.08S
DES MOINES IA  CLEAR     52  40  63 SE10      30.17S
DAVENPORT IA   CLEAR     38  34  85 E7        30.26S
CHICAGO IL     MOCLDY    49  37  63 E8        30.25S
EAU CLAIRE WI  CLEAR     41  34  76 SE7       30.24S
LA CROSSE WI   CLEAR     42  35  76 E5        30.26S
$$

  *****  SOME NATIONAL WEATHER *****

CITY           SKY/WX    TMP DP  RH WIND       PRES   REMARKS
LA GUARDIA NY  MOCLDY    57  52  83 NE8       29.90S
RALEIGH NC     PTCLDY    54  39  57 VRB7G18   29.94S
ATLANTA GA     CLEAR     57  47  69 NW8       30.02S
NEW ORLEANS LA CLEAR     64  56  75 CALM      30.03S
OKLAHOMA CITY  CLEAR     61  56  83 SE7       30.07S
ALBUQUERQUE NM PTCLDY    57  47  69 W3        30.12R
SALT LAKE CITY PTCLDY    49  36  61 NW8       30.07R
LOS ANGELES CA CLEAR     68  62  81 CALM      29.87R
BOISE ID       CLEAR     48  40  73 SE10      30.06R
SEATTLE WA     CLOUDY    59  45  59 S13G22    29.80F
$$

*** WEATHER ACROSS MANITOBA...SASKATCHEWAN AND ONTARIO ***
                ***ONTARIO***

CITY           SKY/WX    TMP DP  RH WIND       PRES   REMARKS
GERALDTON      CLEAR     30  28  93 SE6       30.27F WCI  24
THUNDER BAY    CLOUDY    32  32 100 VRB2      30.29S
SIOUX LOOKOUT  CLEAR     39  34  81 S10       30.09S
TORONTO        CLOUDY    43  36  75 N13G21    30.17S
BIG TROUT LK   CLEAR     43  34  70 S14G23    29.95F
PICKLE LAKE    NOT AVBL
DRYDEN         CLEAR     39  36  87 S17       30.06S
KENORA         PTCLDY    45  36  70 S17G25    29.98S
$$
                *** MANITOBA***

CITY           SKY/WX    TMP DP  RH WIND       PRES   REMARKS
BRANDON        CLEAR     57  45  62 SE13      29.64F
DAUPHIN        PTCLDY    52  43  71 SE14G20   29.62F
ISLAND LAKE    PTCLDY    46  37  71 S12G18    29.82F
PILOT MOUND    NOT AVBL
THE PAS        NOT AVBL
THOMPSON       CLEAR     46  41  81 S5        29.63S
WINNIPEG       CLEAR     54  41  62 S28G39    29.80S
LYNN LAKE      PTCLDY    39  39 100 S3        29.53S
CHURCHILL      CLOUDY    37  36  93 E3        29.63S FOG
GILLAM         CLEAR     48  39  71 SW12      29.69R
$$
                ***SASKATCHEWAN***

CITY           SKY/WX    TMP DP  RH WIND       PRES   REMARKS
ESTEVAN        PTCLDY    45  41  87 S6        29.58R
KINDERSLEY     LGT RAIN  48  45  87 NW10      29.68R
LLOYDMINSTER   MOCLDY    46  37  71 NW7       29.69R
PRINCE ALBERT  CLOUDY    55  43  62 CALM      29.59R
REGINA         PTCLDY    48  43  81 S7        29.57R
YORKTON        MOCLDY    48  41  76 SE6       29.58F
N. BATTLEFORD  LGT RAIN  48  45  87 NW10      29.67S
LA RONGE       CLOUDY    52  43  71 W12       29.60R
SASKATOON      MOCLDY    52  39  62 N10       29.59R
SWIFT CURRENT  CLEAR     48  43  81 W16       29.66S
$$
NOTE: THESE ARE AUTOMATED STATIONS WITH LIMITED QUALITY CONTROL
      "FAIR" INDICATES FEW OR NO CLOUDS BELOW 12,000 FEET WITH NO
      SIGNIFICANT WEATHER AND/OR OBSTRUCTIONS TO VISIBILITY.
      SKY/WX - SKY CONDITION AND SIGNIFICANT WEATHER.
      TMP - AIR TEMPERATURE.    DP   - DEWPOINT TEMPERATURE.
      RH  - RELATIVE HUMIDITY.  PRES - PRESSURE.
      HX  - HEAT INDEX.         WCI  - WIND CHILL INDEX.
$



USA.gov is the U.S. government's official web portal to all federal, state and local government web resources and services.